星链-32116 (STARLINK-32116 )

导读 | 豆包AI

STARLINK-32116是美国太空探索技术公司(SpaceX)星链互联网卫星星座的一员,于2024年6月19日发射入轨,星链项目旨在为全球提供高速低延迟宽带互联网服务,该卫星加入后进一步扩充了星链星座的规模,助力提升全球网络覆盖能力与服务容量。

Basic Information
目录编号:
60075
目录名称:
STARLINK-32116
国际标识:
2024-113S
轨道中心:
EARTH
卫星名称:
星链-32116
卫星全名:
星链-32116 (STARLINK-32116 )
卫星状态:
已陨落 最后检测时间 2024-07-10
发射日期:
2024-06-19 UTC
国别 :
美国 (US)
星等 :
--
Orbit Information
数据来源 国际轨道数据
星历时间: 2024-07-11T01:42:09+0800
轨道信息已过期658天
半长轴: 6501.665km
偏心率: 0.0006149
轨道倾角: 53.128°
近地点辐角 258.235°
升交点赤经 302.194°
平近点角 213.591°
近地点: 119.532km
远地点: 127.528km
周期: 86.955分钟
每日圈数: 16.560213
Detailed Information
固有亮度:
5
最大亮度:
1.5
卫星平台:
Starlink v2.0 mini
覆盖范围:
全球
运营商:
太空探索技术公司
运营商所在国:
美国
制造商(研发单位):
太空探索技术公司
制造商所在国:
美国
使用方式:
暂无
Satellite Introduction
星链(Starlink)计划是由太空探索技术公司(SpaceX)提出的一个巨型低轨卫星互联网星座项目,计划在2019年至2024年间在太空搭建由约1.2万颗卫星组成的“星链”网络,其中1584颗将部署在地球上空550千米处的近地轨道,并从2020年开始工作。该卫星仍在工作。